Other Public Products
Issued by NWS Charleston, SC

Current Version | Previous Version | Graphics & Text | Print | Product List | Glossary On
Versions: 1 2 3 4 5 6 7 8 9 10 11 12 13 14 15 16 17 18 19 20 21 22 23 24 25 26 27 28 29 30 31 32 33 34 35 36 37 38 39 40 41 42 43 44 45 46 47 48 49 50
747 FPUS82 KCHS 231012 OPUCHS TEST...KCHS/KSAV Gateway Observations...TEST National Weather Service Charleston SC 500 AM EST FRI FEB 23 2018 NOTE: "fair" indicates few or no clouds below 12,000 feet with no significant weather and/or obstructions to visibility. SCZ050-WAZ558-NCZ071-TXZ119-213-PAZ071-DCZ001-FLZ074-172-MI076- NYZ176-178-MAZ016-IL014-TNZ027-NJZ106-GAZ044-MD014-231100- ...Gateway Observations for Charleston International... CITY SKY/WX TMP DP RH WIND PRES REMARKS Chas Airport FAIR 58 58 100 CALM 30.40S FOG Seattle CLEAR 26 20 77 SE9 30.44S WCI 17 Charlotte MOCLDY 60 58 92 SE5 30.42R Dallas DFW TSTM 41 38 89 N5 30.21S FOG Dallas Love LGT RAIN 39 38 96 CALM 30.24S FOG Philladelphia CLOUDY 38 34 85 E9 30.63R WCI 31 Wash National DRIZZLE 42 40 92 E6 30.58F FOG Baltimore CLOUDY 39 38 96 E9 30.57F WCI 33 Miami MOCLDY 73 69 87 E9 30.29S Detroit DRIZZLE 35 34 96 E8 30.29F FOG WCI 29 Newark CLOUDY 37 33 85 NE7 30.65S WCI 32 Laguardia CLOUDY 37 32 82 NE12 30.65S WCI 29 J F K CLOUDY 36 33 89 NE8 30.66S WCI 30 Boston Logan FAIR 31 29 92 N7 30.69R WCI 24 Ft. Lauderdale MOCLDY 73 70 90 E14 30.28S Chicago O`Hare LGT RAIN 39 37 92 SE9 30.11F FOG WCI 33 Chicago Midway LGT RAIN 40 39 97 SE10 30.13F FOG WCI 33 Houston Bush FOG 57 57 100 N3 30.18F VSB 1/8 Houston Hobby CLOUDY 62 62 100 N5 30.17F FOG Nashville FAIR 57 55 93 CALM 30.27R Atlanta FAIR 61 60 97 CALM 30.39R $$ GAZ044-118-TXZ119-213-NCZ071-DCZ001-MDZ014-506-PAZ021-071-NJZ106- NYZ176-178-MAZ106-OHZ011-021-055-MIZ076-KYZ091-ILZ014-INZ047- MNZ060-ONZ431-231100- ...Gateway Observations for Savannah International... CITY SKY/WX TMP DP RH WIND PRES REMARKS Savannah Arpt FAIR 59 58 96 E3 30.39S Atlanta FAIR 61 60 97 CALM 30.39R Charlotte MOCLDY 60 58 92 SE5 30.42R Dallas DFW TSTM 41 38 89 N5 30.21S FOG Houston Bush FOG 57 57 100 N3 30.18F VSB 1/8 Wash National DRIZZLE 42 40 92 E6 30.58F FOG Wash Dulles DRIZZLE 39 39 100 E5 30.57F WCI 36 Baltimore CLOUDY 39 38 96 E9 30.57F WCI 33 Philadelphia CLOUDY 38 34 85 E9 30.63R WCI 31 Newark CLOUDY 37 33 85 NE7 30.65S WCI 32 Laguardia CLOUDY 37 32 82 NE12 30.65S WCI 29 J F K CLOUDY 36 33 89 NE8 30.66S WCI 30 Boston FAIR 31 29 92 N7 30.69R WCI 24 Pittsburg DRIZZLE 42 42 100 E5 30.33S FOG Akron FOG 42 40 92 S8 30.30F VSB 3/4 Cleveland CLOUDY 41 40 96 CALM 30.33F FOG Cincinnati RAIN 47 47 100 E3 30.25F FOG Columbus CLOUDY 42 42 100 E3 30.29F FOG Detroit DRIZZLE 35 34 96 E8 30.29F FOG WCI 29 Chicago O`Hare LGT RAIN 39 37 92 SE9 30.11F FOG WCI 33 Minneapolis LGT SNOW 26 26 100 SE3 30.06R FOG Indianapolis CLOUDY 46 45 96 E8 30.15F FOG Toronto Canada CLOUDY 30 27 86 E13G20 30.43F WCI 20 $$

USA.gov is the U.S. government's official web portal to all federal, state and local government web resources and services.